Theta_e
309 309 308 307 306 306 306 306 307 308 309 309 308 309 309 310 311 311 314 320 316 314 315 315 323 324 327 327 328 330 326 328 327 326 326 326 325 328 327 327 325 325 325 326 327
304 305 305 307 308 308 308 307 306 305 306 308 308 308 308 308 310 313 324 320 318 314 314 315 321 326 328 327 328 327 326 326 325 325 325 326 327 328 326 326 324 326 326 326 325
299 301 302 304 304 305 306 307 308 308 306 305 305 306 307 307 308 316 321 320 321 316 313 311 317 324 327 327 329 327 328 327 326 327 329 327 327 329 326 326 326 325 326 325 326
299 298 298 298 299 301 303 304 305 306 308 309 307 305 304 305 306 315 316 318 317 317 314 310 321 326 324 325 327 327 327 328 327 327 329 327 329 327 327 327 327 327 325 325 326
303 303 302 301 299 298 298 299 301 303 305 306 308 309 306 303 305 314 316 316 316 317 318 311 316 326 324 325 326 325 326 327 328 329 329 328 327 326 327 328 328 328 326 325 326
306 304 303 303 303 302 300 299 298 300 302 306 308 307 309 306 307 310 314 314 312 315 316 313 315 317 318 319 321 326 326 327 327 328 329 327 327 328 328 328 327 327 325 325 326
302 303 303 303 302 302 303 302 301 299 300 302 307 308 310 312 309 308 309 312 313 310 311 315 316 317 318 316 319 319 319 320 323 325 325 327 326 325 325 325 326 326 326 326 326
301 301 301 302 302 302 302 302 302 302 301 300 304 309 310 308 310 311 309 311 312 310 310 310 314 316 317 317 317 317 317 320 321 322 324 323 326 324 324 325 325 326 326 326 326
301 301 301 301 301 301 301 302 302 303 303 302 306 308 310 307 308 312 312 310 310 312 314 313 317 317 316 315 314 315 318 318 320 320 321 320 323 324 325 325 324 325 326 326 326
302 301 302 301 301 301 301 302 304 307 303 304 307 309 307 308 309 309 310 312 308 310 310 312 317 313 311 313 316 315 316 318 320 320 320 321 322 323 324 325 324 324 325 324 325
301 302 302 302 302 302 302 306 307 311 308 309 307 307 309 309 310 310 310 309 307 311 310 314 316 318 317 316 316 316 316 317 318 320 322 321 322 323 323 322 323 323 324 325 325
303 302 302 302 303 303 302 307 308 307 307 307 308 309 309 309 311 311 312 309 310 309 311 315 315 318 318 317 316 317 318 319 320 321 321 320 321 321 321 321 322 324 324 324 323
303 303 302 303 303 303 303 307 306 305 307 308 307 308 308 307 311 311 311 312 309 310 311 312 315 319 320 318 319 317 317 318 320 321 321 321 322 322 322 322 324 325 325 324 325
303 303 302 303 304 304 303 304 305 308 306 306 311 309 310 309 310 310 312 313 313 308 312 312 314 317 318 318 317 318 319 319 320 320 323 321 323 321 321 322 321 323 324 326 326
303 303 302 303 304 303 304 304 307 308 301 305 308 311 312 311 311 310 311 314 314 311 310 312 313 314 317 316 317 318 319 320 320 320 321 322 322 321 320 322 321 320 322 324 325
301 301 301 302 303 303 304 304 307 311 307 307 309 308 310 312 312 314 312 312 315 313 311 310 314 314 315 318 318 317 318 318 318 319 321 322 321 323 321 321 322 322 323 324 324
301 301 301 302 302 303 303 305 306 310 306 307 308 308 308 310 313 313 314 312 313 313 314 312 312 314 314 316 315 315 316 318 318 321 323 320 321 323 322 321 321 321 322 324 324
301 301 301 301 302 303 304 306 307 307 307 307 307 308 309 309 309 313 314 313 313 314 314 314 314 313 315 314 314 315 317 320 323 322 322 321 324 323 321 321 323 324 322 324 323
301 302 303 304 304 304 304 306 305 306 306 307 307 308 308 309 309 310 314 315 313 313 314 314 314 315 315 315 315 314 317 318 318 320 321 321 321 321 322 322 323 322 322 323 324
302 301 305 305 304 304 305 302 305 306 305 306 307 308 307 308 309 310 313 314 317 314 312 314 314 315 315 315 314 313 313 314 312 318 321 322 322 323 323 325 324 323 322 323 324
302 302 304 305 304 304 304 303 304 304 304 306 306 306 307 308 309 309 312 314 314 313 313 313 314 316 316 315 314 312 314 314 316 317 320 321 322 319 321 322 324 322 323 324 324
302 299 304 304 304 301 303 304 304 304 304 305 306 306 307 308 309 307 310 312 312 311 313 313 311 314 315 315 315 315 314 314 316 318 318 320 323 321 318 318 322 322 324 325 325
301 301 303 303 305 302 303 304 304 304 305 305 306 306 307 307 309 308 310 310 311 310 310 311 314 314 315 316 315 314 314 314 314 316 319 320 322 321 320 318 324 323 325 325 325
301 299 302 303 302 303 304 304 305 304 304 304 304 305 306 308 308 309 307 308 309 308 311 309 313 315 315 316 317 316 315 314 316 317 318 320 321 324 325 322 323 324 325 325 326
301 299 302 301 300 301 300 302 304 305 304 304 303 306 306 306 309 310 310 310 308 309 309 307 310 316 317 315 317 319 317 316 316 317 319 320 319 320 325 324 324 325 325 325 326
301 302 302 301 302 300 300 303 305 306 305 305 306 306 306 306 308 309 309 310 309 308 308 306 308 314 319 316 315 316 318 317 318 318 320 319 320 318 322 326 326 326 324 325 326
300 301 301 301 301 298 299 303 303 304 306 306 306 305 305 306 307 307 308 309 309 309 308 308 310 311 319 318 316 316 316 317 319 320 320 320 319 319 323 327 326 326 325 325 326
Wind_Speed
22 23 24 25 26 26 26 27 27 26 26 26 24 24 25 27 28 27 28 25 18 16 21 22 18 22 19 17 12 9 3 6 7 7 8 10 3 20 17 13 14 12 16 21 14
23 23 24 24 25 26 27 27 27 28 27 29 28 25 25 28 31 36 32 27 21 23 24 24 19 22 15 11 11 8 5 10 11 7 6 14 14 26 14 23 16 26 25 19 17
21 22 23 25 26 27 28 28 28 28 28 28 28 27 24 24 29 39 34 27 27 25 31 25 21 25 18 10 14 9 13 23 19 27 16 13 22 37 17 17 26 26 26 12 18
20 23 24 24 24 26 27 28 29 29 29 28 26 27 24 19 10 2 17 16 16 22 29 28 24 16 8 11 23 4 16 28 35 32 19 13 28 23 31 27 38 39 30 13 23
19 19 18 19 22 25 26 26 27 27 26 25 24 24 23 18 27 7 20 15 7 7 23 32 26 23 8 6 9 8 20 29 27 26 29 31 26 26 32 43 44 42 35 21 25
21 21 21 22 22 22 22 24 26 28 25 22 19 18 20 16 36 33 30 30 13 7 12 29 17 23 4 14 10 10 14 25 25 30 32 25 28 29 39 37 38 41 31 20 25
22 22 21 22 23 23 24 24 23 24 27 25 18 16 26 48 24 24 29 43 37 32 27 21 34 19 13 6 18 15 12 16 22 30 22 22 20 22 37 35 34 39 38 32 28
22 23 24 24 24 25 25 24 25 25 24 21 18 14 22 32 29 43 33 23 36 33 33 29 22 37 13 7 7 4 2 7 6 15 21 9 26 25 39 33 35 37 37 35 31
22 22 24 25 25 25 26 28 27 27 27 19 15 13 19 18 31 41 40 43 34 24 21 23 23 16 7 10 7 3 12 13 17 11 6 8 13 21 22 19 24 33 40 38 35
24 25 24 24 25 25 27 28 24 15 11 8 12 6 24 20 17 31 30 36 28 24 27 20 14 6 5 6 15 11 9 15 19 3 11 16 14 22 31 19 23 32 39 37 39
23 24 26 26 24 22 25 26 8 3 3 11 10 16 1 12 12 5 10 24 28 12 11 18 8 19 21 20 12 13 12 18 18 5 7 9 10 17 24 18 22 28 34 37 39
24 22 22 24 25 20 20 9 6 12 15 22 30 36 43 31 13 14 15 15 14 18 10 7 27 17 12 14 16 11 9 18 15 12 5 12 15 16 17 15 25 34 31 34 28
25 24 23 22 24 20 11 11 11 19 8 18 29 24 40 30 18 18 17 14 6 13 23 25 18 15 19 14 17 17 19 18 20 6 7 11 12 16 17 13 25 23 24 20 22
25 22 23 24 17 10 14 6 14 9 4 8 7 8 18 27 13 39 16 12 7 20 17 17 23 17 20 20 19 19 19 19 17 8 9 4 5 5 8 10 7 13 12 18 21
24 22 22 18 22 22 12 15 11 5 5 2 5 5 3 20 4 21 32 21 12 8 11 16 19 25 17 29 20 18 12 12 8 7 5 16 4 5 4 10 10 11 15 15 14
24 24 21 20 20 15 11 13 5 2 8 6 4 12 2 15 23 9 23 25 16 7 11 20 14 18 27 10 18 8 3 3 6 2 8 21 5 8 6 8 6 6 12 7 16
27 25 20 18 19 16 15 9 0 6 6 3 11 18 12 14 11 15 13 20 16 10 15 8 21 4 10 20 10 10 6 2 3 4 6 8 6 14 10 10 12 11 5 12 18
28 23 20 18 15 9 3 1 8 5 9 13 19 17 9 20 12 9 10 16 26 16 11 12 10 27 11 19 12 22 15 6 6 4 4 6 7 10 9 13 23 21 11 18 20
25 22 12 7 3 7 3 4 4 3 8 14 15 8 9 15 10 11 12 6 15 17 8 13 14 2 22 8 18 11 15 12 3 1 1 4 7 8 3 1 2 7 18 22 23
24 20 9 8 6 10 1 5 4 6 12 13 8 6 15 12 13 14 5 12 7 19 0 2 2 9 14 19 17 9 9 9 4 4 3 5 4 6 3 2 3 6 10 19 23
18 8 11 2 11 5 2 5 5 11 12 4 5 9 14 8 5 14 7 7 18 14 10 3 2 4 10 14 23 6 15 3 8 5 6 1 6 8 9 9 11 9 20 26 28
9 3 6 4 1 1 1 3 6 10 13 8 7 11 12 6 4 6 9 12 14 15 7 6 5 9 11 4 17 23 19 20 8 8 2 5 12 5 8 10 9 12 23 25 29
14 5 4 2 2 1 3 5 8 11 8 3 4 6 10 9 5 4 8 16 16 16 13 8 5 1 5 5 4 14 22 16 7 3 6 6 6 3 5 8 17 16 23 27 29
7 4 4 2 3 1 4 4 4 10 10 6 7 7 9 9 7 7 13 9 20 18 18 6 5 12 17 4 4 5 17 17 14 10 10 10 5 3 3 7 7 14 27 30 31
5 3 4 3 3 7 3 4 7 6 3 9 4 4 8 6 8 7 10 13 7 13 9 3 4 7 17 21 11 4 11 20 20 20 15 16 10 7 8 10 15 24 25 27 29
6 4 4 10 10 5 5 3 7 10 5 5 2 7 8 7 7 12 10 5 3 9 9 6 5 10 9 15 23 22 8 16 20 14 11 8 9 8 8 12 11 23 27 29 34
9 8 5 6 6 3 3 4 10 12 9 13 8 9 12 12 8 16 15 11 9 6 8 3 4 10 7 13 9 16 28 15 9 13 15 9 9 7 4 11 15 23 30 33 36
Wind_Direction
286 289 290 287 287 287 286 284 280 275 272 274 278 277 277 278 277 274 264 267 271 266 255 264 225 210 209 210 201 189 111 248 237 184 248 276 360 295 312 295 305 269 253 282 265
289 286 284 286 287 288 286 284 282 282 277 274 273 273 274 278 279 270 267 277 271 260 248 242 225 201 204 212 201 183 175 229 226 208 245 289 304 291 310 302 288 287 286 293 240
303 298 291 286 283 282 284 286 286 281 277 275 273 273 273 277 284 270 275 270 264 243 234 241 228 210 216 200 198 192 222 233 265 252 252 273 288 285 284 286 285 276 293 277 224
323 313 305 299 292 285 281 278 279 280 280 276 274 273 269 263 239 213 217 224 225 224 218 217 209 192 211 209 220 246 231 240 247 263 272 259 273 278 280 275 286 288 289 257 222
337 334 332 321 311 302 294 285 278 278 277 279 279 271 269 246 238 199 197 204 195 214 219 203 201 203 204 205 216 221 247 248 259 270 274 275 267 265 280 283 288 287 278 255 225
335 332 329 328 326 321 314 303 289 280 276 274 278 281 272 249 253 252 233 239 242 243 211 205 212 219 240 239 242 233 259 262 260 262 263 265 274 278 274 278 280 283 268 255 239
331 330 329 325 323 321 321 314 303 287 280 276 273 276 260 247 245 244 242 240 244 247 242 228 219 202 217 311 265 271 271 278 262 262 260 273 279 268 275 279 276 279 271 272 263
324 323 321 322 321 321 320 312 302 298 293 285 266 269 258 259 262 250 237 236 232 240 239 236 241 233 231 246 325 358 287 265 236 241 256 218 265 268 271 272 271 274 277 279 264
323 321 320 318 315 316 317 311 307 296 279 262 255 240 270 265 252 257 244 238 235 228 223 228 227 218 212 224 269 260 258 267 279 222 249 180 277 275 282 269 268 278 281 276 253
325 323 320 317 316 316 313 314 314 297 285 210 224 241 252 247 266 255 250 234 228 228 226 223 207 183 167 163 214 219 238 247 251 200 221 252 259 277 282 293 279 278 279 265 252
322 321 321 320 318 319 313 335 348 324 282 217 216 222 139 29 211 244 229 199 209 204 185 185 197 210 202 209 216 228 234 247 258 213 233 240 252 274 282 290 281 282 274 261 258
326 321 319 318 316 322 307 308 334 324 296 277 266 253 256 274 299 238 228 157 181 200 168 182 227 210 208 210 218 232 246 256 281 265 246 276 269 270 283 278 275 271 266 259 248
326 323 322 318 310 316 294 307 334 331 270 280 251 246 241 247 234 247 197 182 175 194 196 203 221 197 206 212 217 224 230 247 251 299 226 278 282 278 279 290 283 263 261 254 253
326 323 321 321 313 303 311 327 318 317 288 273 219 253 213 209 244 235 212 190 202 203 199 227 218 182 205 223 212 231 221 241 256 276 271 116 290 294 279 289 285 262 229 245 251
327 323 321 317 300 297 318 296 319 166 308 236 202 351 283 193 126 227 213 209 207 166 173 205 198 222 223 219 205 237 225 244 255 258 298 271 265 255 267 287 266 269 252 252 242
326 326 316 312 298 315 318 312 304 207 247 308 75 351 314 224 247 310 178 208 208 220 233 222 206 206 222 203 213 233 229 287 265 234 254 264 163 276 230 226 264 261 292 254 189
330 323 307 297 286 308 311 321 206 224 304 13 348 335 326 337 202 243 217 189 187 186 212 188 228 221 175 218 209 194 112 271 307 198 222 234 180 239 257 245 247 250 198 175 181
334 326 312 295 294 281 316 88 222 253 268 351 346 326 16 11 343 264 235 200 206 195 174 192 213 212 189 202 191 210 187 176 201 183 213 181 236 252 242 258 243 243 211 171 179
337 338 349 7 230 178 179 213 230 302 9 347 338 355 344 360 346 348 233 267 225 195 178 201 231 215 198 189 183 199 206 181 358 278 72 208 285 323 268 305 206 157 169 177 186
342 338 29 352 179 154 124 257 275 321 338 347 325 5 334 341 339 340 317 360 279 223 44 279 166 216 206 200 211 159 153 188 192 228 219 263 254 230 256 199 191 159 166 176 187
347 342 354 192 167 149 218 244 302 302 314 311 326 308 308 319 341 328 310 26 22 353 343 267 148 301 156 202 196 164 231 156 160 186 177 179 257 211 213 186 190 213 182 183 187
350 346 6 358 17 9 274 242 302 292 306 281 237 264 279 287 286 292 291 336 32 3 6 279 208 244 217 282 187 200 205 212 200 211 208 164 257 227 209 191 170 197 188 189 192
342 302 326 344 282 273 275 263 254 285 287 265 297 297 279 300 300 249 284 313 332 358 346 326 276 219 274 270 187 204 204 201 206 96 210 156 258 248 215 195 190 182 188 190 188
348 342 325 16 358 302 311 275 270 283 294 260 286 275 290 301 254 260 277 294 314 334 330 325 268 234 220 196 173 167 198 196 193 210 219 231 260 213 147 164 169 178 191 189 185
13 305 335 309 337 304 261 274 309 326 280 282 290 237 276 300 318 261 280 292 302 328 359 23 268 274 258 238 272 213 176 199 205 209 198 230 204 215 192 189 200 185 185 181 183
5 334 321 288 304 304 301 299 296 317 293 288 223 310 328 281 250 287 313 333 358 301 329 356 287 329 259 235 231 251 258 204 206 208 218 177 216 200 190 125 148 183 175 182 189
342 313 279 293 305 299 250 333 305 303 281 252 274 310 291 276 310 289 246 215 207 228 279 260 334 351 274 223 222 248 240 239 221 201 190 180 214 149 136 174 182 187 189 190 193